Location: Oberkirch
(48.5323°N, 8.0787°E)
Time: 17:25:17
(UTC+00:00)

SR - Pass Details

Date: 27 February 2026
Orbit: 572 x 848 km, 66.7° (Epoch: 8 March)

Event Time Altitude Azimuth Distance (km) Brightness Sun altitude
Exits shadow 03:12:51 20° 5° (N) 1,451 ? -30.2°
Drops below altitude 10° 03:14:44 10° 22° (NNE) 2,054 ? -29.9°
Sets 03:17:20 0° 32° (NNE) 3,017 ? -29.5°
